Starlink 31804

operational
NORAD ID: 59641 Int'l Des: 2024-082 Owner: SPXS Country: US Constellation: starlink
LEOCIRCULAR

About Starlink 31804

Description loading...

Live Position

Loading 3D Globe...

Upcoming Passes

Altitude History

Altitude vs Time

uPlot chart will show altitude changes over time

Two-Line Element Set

1 59641U 24082L 25258.11671070 -.00001834 00000-0 -57157-4 0 9993
2 59641 42.9981 51.0689 0000586 294.7312 65.3479 15.27569226 77964
Epoch: Sep 15, 2025 • Age: 31 hours

Current Status

Altitude 485.8 km
Velocity 7.62 km/s
Sub-Earth Point -15.57°S, 120.49°W
Launch Date May 3, 2024
Age 1.3 years
Type internet

Technical Details

Classification Payload
Mass 730.00 kg
Dry Mass 700.00 kg
Total Mass 730.00 kg
Length 0.30 m
Diameter 4.10 m
Span 29.00 m
Shape Box + pan
Manufacturer SPXS
Bus Type Starlink V2M
Phase Status In Orbit
Owner/State SPXS/US

Large Constellations

Loading constellations...